SCP
-0 -0 -0 -0 -0 -0 -0 -0 -0 -0 -0 -0 -0 -0 -0 -0 -0 0 0 0 0 0 0 0 0 0 0 0 0 0 0 0
-0 -0 -0 -0 -0 -0 -0 -0 -0 -0 -0 -0 -0 -0 -0 -0 -0 -0 -0 0 0 0 -0 0 0 0 0 0 0 0 0 0
-0 -0 -0 -0 -0 -0 -0 -0 -0 -0 -0 -0 -0 -0 -0 -0 -0 -0 -0 -0 -0 -0 -0 0 0 0 0 0 0 0 0 -0
0 0 0 -0 -0 -0 -0 -0 0 0 -0 -0 -0 -0 -0 -0 -0 -0 -0 -0 -0 -0 -0 0 0 0 0 -0 0 0 0 -0
0 0 0 0 -0 0 -0 -0 0 0 0 0 -0 -0 -0 -0 -0 -0 -0 -0 -0 -0 -0 0 0 0 0 -0 -0 0 0 -0
0 0 0 0 0 0 0 0 0 0 0 0 0 0 -0 -0 -0 -0 -0 -0 -0 0 0 0 0 0 0 0 0 0 -0 0
0 0 0 0 0 0 0 0 0 0 0 0 0 0 0 0 0 0 0 0 0 -0 0 0 0 0 -0 0 -0 -0 0 0
0 0 0 0 0 0 0 0 0 0 0 0 0 0 0 0 0 0 0 0 0 -0 -0 -0 0 0 0 0 0 0 0 0
-0 0 0 0 0 0 0 0 0 0 0 0 0 0 0 0 0 0 0 0 0 0 0 0 0 0 0 0 0 0 0 0
0 -0 0 0 0 0 0 0 0 0 0 0 0 0 0 0 0 0 0 0 0 0 0 0 0 0 0 0 0 0 0 0
0 0 0 0 0 0 0 0 0 0 0 0 0 0 0 0 0 0 0 0 0 0 0 0 0 0 0 0 0 0 0 0
0 0 0 0 0 0 0 1 1 0 0 0 0 0 0 0 0 0 0 0 0 0 0 0 0 0 0 0 0 0 0 0
0 0 0 0 0 0 1 1 1 0 0 0 0 0 0 0 0 0 0 0 0 0 0 0 0 0 0 0 0 0 0 0
0 0 0 0 0 0 0 1 1 1 1 0 0 0 0 0 0 0 0 0 0 0 0 0 0 0 0 0 0 0 0 0
0 1 0 1 1 1 1 1 0 0 0 0 0 1 0 0 0 0 0 0 1 0 0 0 0 0 0 0 0 0 0 0
0 0 0 1 1 1 1 1 0 0 -0 0 0 0 0 0 0 0 0 0 0 0 0 0 0 0 0 0 0 0 0 0
0 0 0 0 1 1 1 1 1 0 0 0 -0 0 0 0 0 0 0 0 0 0 0 0 0 0 0 0 0 0 0 0
1 1 1 1 1 1 1 1 1 1 1 0 0 0 0 0 0 0 0 0 1 0 0 0 0 0 0 0 0 0 0 0
1 1 1 1 2 1 1 1 1 1 1 1 1 0 1 0 0 1 1 0 1 0 1 0 0 0 0 0 0 0 0 0
Wind_Speed_500mb
54 57 58 56 53 48 45 43 42 39 34 30 26 22 18 15 12 9 5 4 4 3 2 1 2 2 3 5 7 9 9 5
57 54 58 56 53 50 47 44 41 38 34 30 25 22 18 14 12 9 6 5 5 3 3 3 2 3 4 4 5 7 7 2
54 51 61 56 52 48 46 43 40 37 33 30 26 23 19 15 12 9 7 7 7 6 9 8 7 8 7 6 6 6 5 2
49 51 60 58 54 49 44 42 40 37 33 30 27 24 21 18 15 10 8 8 8 9 5 3 4 4 4 4 7 10 8 5
48 48 49 58 56 53 48 44 40 36 33 31 28 26 24 20 16 10 9 9 8 7 1 2 5 4 3 2 3 10 10 7
49 51 47 48 48 47 41 48 43 39 36 34 32 30 26 18 16 12 12 11 8 6 2 0 2 3 4 2 4 8 9 6
54 55 52 50 48 46 41 41 47 44 41 39 36 34 28 21 19 15 17 12 9 7 5 4 2 5 6 3 3 7 5 8
48 52 54 54 53 49 44 41 42 37 37 39 39 36 29 25 23 19 14 12 9 7 4 5 6 5 5 4 7 9 10 8
51 53 53 54 59 54 45 42 38 37 35 33 35 41 34 31 26 21 17 15 13 9 12 4 6 9 5 5 6 8 8 8
46 52 55 53 59 62 60 43 42 39 37 32 32 37 35 30 27 24 21 17 14 13 10 9 6 5 4 4 4 6 6 8
39 49 51 55 55 57 62 53 46 49 40 41 33 33 41 33 29 25 23 19 16 14 12 10 8 5 4 5 5 6 6 5
32 40 50 56 55 61 62 64 54 41 42 40 38 41 44 43 38 32 25 23 20 19 16 13 11 9 6 5 6 6 6 8
30 38 43 46 53 59 59 59 56 48 47 47 46 41 49 48 46 40 30 26 23 22 20 14 10 10 10 9 9 7 9 9
30 34 38 46 50 50 54 54 52 52 47 51 56 50 47 49 48 47 36 29 30 24 22 20 15 13 13 13 11 11 10 10
28 34 38 43 50 55 52 58 54 35 24 36 40 55 58 54 53 51 41 35 37 28 27 26 21 16 15 15 14 14 11 11
16 28 35 40 49 56 60 61 57 64 59 50 51 58 67 58 51 53 43 35 45 36 31 31 26 24 17 19 19 15 13 17
17 17 30 37 44 53 56 55 57 56 51 57 70 52 45 59 55 50 50 37 39 34 41 37 31 20 20 24 21 18 16 16
28 23 22 34 39 47 52 52 61 70 72 70 71 74 67 57 57 56 55 49 47 45 36 41 34 31 24 25 30 19 15 19
30 29 25 25 35 38 44 49 54 56 71 75 70 60 57 55 61 58 56 55 54 48 40 41 39 32 33 29 28 34 28 12
Wind_Direction_500mb
172 176 182 181 179 179 179 180 181 180 177 176 175 174 169 168 171 171 167 172 182 180 143 111 109 123 146 156 162 169 168 137
173 174 183 183 183 183 182 184 185 184 182 180 180 182 182 185 186 180 182 203 214 220 265 285 262 214 185 178 175 178 178 141
173 174 183 186 185 189 188 189 190 190 189 187 187 190 193 198 199 198 204 209 227 259 284 281 253 228 217 209 211 210 202 190
176 174 184 186 189 192 194 195 197 197 196 197 196 197 201 205 207 211 224 220 243 282 278 257 211 223 227 236 218 213 207 179
178 178 180 186 190 193 197 201 202 204 205 205 206 205 208 211 216 228 239 236 267 276 280 174 208 220 275 291 205 197 194 161
181 184 182 183 187 189 194 203 204 207 209 212 213 215 216 215 224 237 231 255 260 245 258 0 213 253 273 282 196 196 176 166
185 189 188 187 190 189 194 201 205 210 213 214 218 221 215 213 211 202 236 248 236 243 248 299 284 314 11 264 265 162 141 175
193 193 192 190 191 191 195 197 201 205 209 216 217 219 215 221 228 225 224 221 225 247 306 318 328 349 253 195 212 202 190 191
199 198 199 198 203 196 198 202 202 203 210 214 220 225 218 222 224 212 212 212 209 232 229 229 276 276 251 220 212 214 214 214
207 205 204 203 209 210 207 206 205 207 214 218 222 228 220 222 226 223 219 214 219 230 247 256 247 282 249 237 252 240 222 214
206 208 205 208 212 211 215 212 215 221 217 222 224 226 232 228 231 225 227 226 230 235 239 242 255 257 251 242 256 189 181 196
219 212 209 209 212 219 225 226 221 220 221 227 228 233 238 237 233 225 231 235 244 239 231 237 274 267 252 248 224 202 191 186
219 220 215 212 215 226 224 230 226 226 230 234 239 235 244 243 237 238 231 237 243 236 237 231 240 244 238 233 227 214 215 186
236 226 228 226 218 219 222 225 227 232 242 251 250 246 244 246 243 239 233 233 235 238 234 235 241 234 237 213 222 210 211 210
238 236 228 231 231 226 227 234 228 221 225 252 255 252 245 244 243 242 234 231 240 236 239 238 239 242 228 223 209 220 203 210
264 237 232 234 233 229 232 231 229 215 211 209 222 254 239 240 239 242 236 238 244 237 235 241 255 251 233 220 207 219 219 215
341 255 242 236 236 236 233 231 227 227 226 223 213 243 245 242 242 245 245 235 244 232 243 243 250 232 230 219 210 218 224 233
345 327 262 243 231 235 230 235 234 229 229 226 231 244 247 246 244 245 248 239 242 235 238 242 251 248 236 234 217 213 225 242
344 337 313 251 240 233 232 229 236 231 234 235 239 249 253 248 243 242 244 245 241 237 228 243 248 249 231 235 237 233 233 230
Wind_Speed_850mb
54 57 58 56 53 48 45 43 42 39 34 30 26 22 18 15 12 9 5 4 4 3 2 1 2 2 3 5 7 9 9 5
57 54 58 56 53 50 47 44 41 38 34 30 25 22 18 14 12 9 6 5 5 3 3 3 2 3 4 4 5 7 7 2
54 51 61 56 52 48 46 43 40 37 33 30 26 23 19 15 12 9 7 7 7 6 9 8 7 8 7 6 6 6 5 2
49 51 60 58 54 49 44 42 40 37 33 30 27 24 21 18 15 10 8 8 8 9 5 3 4 4 4 4 7 10 8 5
48 48 49 58 56 53 48 44 40 36 33 31 28 26 24 20 16 10 9 9 8 7 1 2 5 4 3 2 3 10 10 7
49 51 47 48 48 47 41 48 43 39 36 34 32 30 26 18 16 12 12 11 8 6 2 0 2 3 4 2 4 8 9 6
54 55 52 50 48 46 41 41 47 44 41 39 36 34 28 21 19 15 17 12 9 7 5 4 2 5 6 3 3 7 5 8
48 52 54 54 53 49 44 41 42 37 37 39 39 36 29 25 23 19 14 12 9 7 4 5 6 5 5 4 7 9 10 8
51 53 53 54 59 54 45 42 38 37 35 33 35 41 34 31 26 21 17 15 13 9 12 4 6 9 5 5 6 8 8 8
46 52 55 53 59 62 60 43 42 39 37 32 32 37 35 30 27 24 21 17 14 13 10 9 6 5 4 4 4 6 6 8
39 49 51 55 55 57 62 53 46 49 40 41 33 33 41 33 29 25 23 19 16 14 12 10 8 5 4 5 5 6 6 5
32 40 50 56 55 61 62 64 54 41 42 40 38 41 44 43 38 32 25 23 20 19 16 13 11 9 6 5 6 6 6 8
30 38 43 46 53 59 59 59 56 48 47 47 46 41 49 48 46 40 30 26 23 22 20 14 10 10 10 9 9 7 9 9
30 34 38 46 50 50 54 54 52 52 47 51 56 50 47 49 48 47 36 29 30 24 22 20 15 13 13 13 11 11 10 10
28 34 38 43 50 55 52 58 54 35 24 36 40 55 58 54 53 51 41 35 37 28 27 26 21 16 15 15 14 14 11 11
16 28 35 40 49 56 60 61 57 64 59 50 51 58 67 58 51 53 43 35 45 36 31 31 26 24 17 19 19 15 13 17
17 17 30 37 44 53 56 55 57 56 51 57 70 52 45 59 55 50 50 37 39 34 41 37 31 20 20 24 21 18 16 16
28 23 22 34 39 47 52 52 61 70 72 70 71 74 67 57 57 56 55 49 47 45 36 41 34 31 24 25 30 19 15 19
30 29 25 25 35 38 44 49 54 56 71 75 70 60 57 55 61 58 56 55 54 48 40 41 39 32 33 29 28 34 28 12
Wind_Direction_850mb
172 176 182 181 179 179 179 180 181 180 177 176 175 174 169 168 171 171 167 172 182 180 143 111 109 123 146 156 162 169 168 137
173 174 183 183 183 183 182 184 185 184 182 180 180 182 182 185 186 180 182 203 214 220 265 285 262 214 185 178 175 178 178 141
173 174 183 186 185 189 188 189 190 190 189 187 187 190 193 198 199 198 204 209 227 259 284 281 253 228 217 209 211 210 202 190
176 174 184 186 189 192 194 195 197 197 196 197 196 197 201 205 207 211 224 220 243 282 278 257 211 223 227 236 218 213 207 179
178 178 180 186 190 193 197 201 202 204 205 205 206 205 208 211 216 228 239 236 267 276 280 174 208 220 275 291 205 197 194 161
181 184 182 183 187 189 194 203 204 207 209 212 213 215 216 215 224 237 231 255 260 245 258 0 213 253 273 282 196 196 176 166
185 189 188 187 190 189 194 201 205 210 213 214 218 221 215 213 211 202 236 248 236 243 248 299 284 314 11 264 265 162 141 175
193 193 192 190 191 191 195 197 201 205 209 216 217 219 215 221 228 225 224 221 225 247 306 318 328 349 253 195 212 202 190 191
199 198 199 198 203 196 198 202 202 203 210 214 220 225 218 222 224 212 212 212 209 232 229 229 276 276 251 220 212 214 214 214
207 205 204 203 209 210 207 206 205 207 214 218 222 228 220 222 226 223 219 214 219 230 247 256 247 282 249 237 252 240 222 214
206 208 205 208 212 211 215 212 215 221 217 222 224 226 232 228 231 225 227 226 230 235 239 242 255 257 251 242 256 189 181 196
219 212 209 209 212 219 225 226 221 220 221 227 228 233 238 237 233 225 231 235 244 239 231 237 274 267 252 248 224 202 191 186
219 220 215 212 215 226 224 230 226 226 230 234 239 235 244 243 237 238 231 237 243 236 237 231 240 244 238 233 227 214 215 186
236 226 228 226 218 219 222 225 227 232 242 251 250 246 244 246 243 239 233 233 235 238 234 235 241 234 237 213 222 210 211 210
238 236 228 231 231 226 227 234 228 221 225 252 255 252 245 244 243 242 234 231 240 236 239 238 239 242 228 223 209 220 203 210
264 237 232 234 233 229 232 231 229 215 211 209 222 254 239 240 239 242 236 238 244 237 235 241 255 251 233 220 207 219 219 215
341 255 242 236 236 236 233 231 227 227 226 223 213 243 245 242 242 245 245 235 244 232 243 243 250 232 230 219 210 218 224 233
345 327 262 243 231 235 230 235 234 229 229 226 231 244 247 246 244 245 248 239 242 235 238 242 251 248 236 234 217 213 225 242
344 337 313 251 240 233 232 229 236 231 234 235 239 249 253 248 243 242 244 245 241 237 228 243 248 249 231 235 237 233 233 230